Home   Weather   Minot   Past weeks

Flag for USA Past Weather in Minot, North Dakota, USA — Yesterday and Last 2 Weeks

Now
-9 °F

Clear.


Feels Like: -26 °F
Forecast: -21 / -6 °F
Wind: 9 mph from West

Location: Minot International Airport

Current Time: Dec 9, 2016 at 5:46:33 am

Latest Report: Dec 9, 2016 at 4:54 am


Visibility: 10 mi

Pressure: 30.70 "Hg

Humidity: 78%

Dew Point: -14 °F

Location of MinotLocation

Past Weather in Minot — Graph

°F

Minot Temperature Yesterday

Maximum temperature yesterday: 6 °F (at 12:54 am)
Minimum temperature yesterday: -7 °F (at 10:54 pm)
Average temperature yesterday: 0 °F

High & Low Weather Summary for the Past Weeks

 TemperatureHumidityPressure
High53 °F (Nov 26, 2:54 pm)100% (Nov 27, 10:54 pm)30.76 "Hg (Nov 27, 10:54 pm)
Low-8 °F (Dec 9, 12:54 am)38% (Nov 26, 2:54 pm)29.07 "Hg (Nov 28, 7:56 am)
Average24 °F83%29.91 "Hg
* Reported Nov 24 3:54 am — Dec 9 3:54 am, Minot, Weather by CustomWeather, © 2016

Note: Actual official high and low records may vary slightly from our data, if they occured in-between our weather recording intervals... More about our weather records

Advertising

Minot Weather History for the Previous 24 Hours

Scroll right to see more
 ConditionsComfort  
Time TempWeatherWind HumidityBarometerVisibility
3:54 am
Fri, Dec 9
N/APassing clouds.6 mphN/A30.70 "Hg10 mi
2:54 amN/APassing clouds.8 mphN/A30.71 "Hg10 mi
1:54 am-6 °FPassing clouds.12 mph78%30.71 "Hg10 mi
12:54 am-8 °FClear.8 mph83%30.71 "Hg10 mi
11:54 pm
Thu, Dec 8
-6 °FClear.10 mph78%30.71 "Hg10 mi
10:54 pm-7 °FClear.10 mph79%30.72 "Hg10 mi
9:54 pm-6 °FClear.10 mph78%30.73 "Hg10 mi
8:54 pm-4 °FClear.8 mphN/A30.73 "Hg10 mi
7:54 pm-2 °FPassing clouds.13 mph75%30.73 "Hg10 mi
6:54 pm0 °FOvercast.12 mph71%30.73 "Hg10 mi
5:54 pm0 °FOvercast.10 mph71%30.74 "Hg10 mi
4:54 pm0 °FPassing clouds.14 mph71%30.74 "Hg10 mi
4:02 pm1 °FScattered clouds.16 mph72%30.60 "Hg10 mi
2:54 pm2 °FSunny.16 mph69%30.74 "Hg10 mi
1:54 pm1 °FPassing clouds.15 mph72%30.74 "Hg10 mi
12:54 pm1 °FSunny.16 mph72%30.75 "Hg10 mi
11:54 am0 °FScattered clouds.15 mph75%30.76 "Hg3 mi
10:54 am-1 °FSunny.18 mph75%30.76 "Hg10 mi
9:54 am-2 °FSunny.17 mph75%30.76 "Hg10 mi
8:54 am-2 °FSunny.17 mph75%30.74 "Hg10 mi
7:54 am-1 °FClear.20 mph79%30.73 "Hg10 mi
6:54 am0 °FClear.18 mph79%30.72 "Hg10 mi
5:54 am2 °FPassing clouds.14 mph76%30.70 "Hg10 mi
Weather by CustomWeather, © 2016

See weather overviewHow to use our weather pages